H-2A DEB

Satellite information

Favourite Embed

Satellite Type and Status

DEBRISIN ORBIT

Key statistics

Satellite H-2A DEB at a glance.

Uptime

2753

Days in orbit

Revolutions

≈ 14.5

Per day

Orbit

SSO

Sun Synchronous Orbit

Inclination

98.3

Latest

Satellite identification and parameters

Extended collection of information and parameters for H-2A DEB.

Object identification

Identified? True

Debris? True

Object name: H-2A DEB

International designator: 2017-082E

Object number (NORAD): 43069

Object ID (CCSDS): 43069

Country: JAPAN (JPN)

Current information (Y/N): Y

RCS size: SMALL

Orbital parameters

Period: 99.056 minutes

Inclination: 98.2845 deg

SMA: 7091.639 km

Apoapsis: 732.234 km

Periapsis: 694.774 km

RAAN: 253.5211 deg

Eccentricy: 0.0026411

Argument of periapsis: 118.9622 deg

Mean anomaly: 241.4227 deg

Mean motion: 14.53726949 rev/day

Mean motion (dot): 0.00003837 rev/day2

B* drag term: 0.00092199 1/REarth

Two-line elements (TLE)

Creation date: July 6, 2025, 10:56 p.m.

Reference frame: TEME

Reference center: EARTH

Epoch: July 6, 2025, 6:06 p.m. UTC

TLE line 0: 0 H-2A DEB

TLE line 1: 1 43069U 17082E 25187.75475857 .00003837 00000-0 92199-3 0 9995

TLE line 2: 2 43069 98.2845 253.5211 0026411 118.9622 241.4227 14.53726949396484

Live tracking on map

Real-time ground track for satellite H-2A DEB.

In-orbit conjunctions

A list of the most updated potential collisions computed for object H-2A DEB.

Target Orbit TCA Probability of collision Miss distance Type
THOR BURNER 2 R/B SSO 2024-08-19 16:02:44 0.0003880356 82.0 (m) ROCKET BODY
TITAN 3C TRANSTAGE DEB LEO 2024-07-30 13:00:04 0.0001957731 142.0 (m) DEBRIS

Associated space launch

GCOM-C1 is another satellite in JAXA's Earth observation Global Change Observation Mission (GCOM) constellation. This spacecraft is the first satellite in GCOM-C series and is intended to operate in sun-synchronous orbit for 5 years. It aims to collect surface and atmospheric measurements in order to monitor global climate change. Along with it is launched an engineering test satellite SLATS (Super Low Altitude Test Satellite), which is an attempt to develop techniques to operate a satellite in extremely low orbits. SLATS will try achieve that by maintaining position in orbit via ion engines. It will also collect data on atmosphere density and measure atomic oxygen in such low altitudes.

H-2A DEB was lifted into orbit during the mission ‘H-IIA 202 | GCOM-C1 & SLATS’, on board a H-IIA space rocket.

The launch took place on Dec. 23, 2017, 1:26 a.m. from Yoshinobu Launch Complex LP-1.

For more information about the launch, click the button.

Launch to space H-IIA 202 | GCOM-C1 & SLATS
H-IIA 202 | GCOM-C1 & SLATS

Agency: N/A

Status: Launch Successful

Launch date: Dec. 23, 2017, 1:26 a.m. UTC

Rocket: H-IIA

Launch pad: Yoshinobu Launch Complex LP-1

Location: Tanegashima Space Center, Japan

...

Latest news about this satellite

There are no fresh news available about this satellite. Check back as we update our databases every day.


Newsletter sign-up

Weekly statistics, charts and insights to help you stay on top of the space industry.